Location: Sobotiste
(48.7170°N, 17.4000°E)
Time: 09:35:29
(UTC+02:00)

AO-73 - Pass Details

Date: 18 March 2026
Orbit: 514 x 567 km, 97.8° (Epoch: 14 April)

Event Time Altitude Azimuth Distance (km) Brightness Sun altitude
Rises 03:09:59 0° 20° (NNE) 2,664 ? -27.1°
Reaches altitude 10° 03:12:14 10° 30° (NNE) 1,763 ? -26.8°
Maximum altitude 03:15:45 36° 97° (E) 842 ? -26.3°
Enters shadow 03:15:52 35° 102° (ESE) 843 ? -26.3°
